Time,TemperatureF,DewpointF,PressureIn,WindDirection,WindDirectionDegrees,WindSpeedMPH,WindSpeedGustMPH,Humidity,HourlyPrecipIn,Conditions,Clouds,dailyrainin,SoftwareType,DateUTC
2013-08-22 00:00:00,74.0,68.9,30.03,SW,231,0.0,1.0,84,0.00,,CLR,0.00,VWS V14.01,2013-08-22 05:00:00,
2013-08-22 00:03:00,73.9,69.1,30.03,SW,235,0.0,1.0,85,0.00,,SCT100,0.00,VWS V14.01,2013-08-22 05:03:00,
2013-08-22 00:08:00,73.7,68.9,30.03,WSW,255,0.0,1.0,85,0.00,,SCT100,0.00,VWS V14.01,2013-08-22 05:08:00,
2013-08-22 00:10:00,73.7,68.9,30.03,WSW,255,0.0,1.0,85,0.00,,CLR,0.00,VWS V14.01,2013-08-22 05:10:00,
2013-08-22 00:13:00,73.8,69.0,30.03,WNW,284,0.0,2.0,85,0.00,,SCT100,0.00,VWS V14.01,2013-08-22 05:13:00,
2013-08-22 00:18:00,73.9,68.8,30.03,WSW,249,0.0,0.0,84,0.00,,SCT100,0.00,VWS V14.01,2013-08-22 05:18:00,
2013-08-22 00:20:00,73.9,68.8,30.03,WSW,249,0.0,2.0,84,0.00,,CLR,0.00,VWS V14.01,2013-08-22 05:20:00,
2013-08-22 00:23:00,74.0,68.9,30.03,West,264,0.0,1.0,84,0.00,,BKN120,0.00,VWS V14.01,2013-08-22 05:23:00,
2013-08-22 00:28:00,74.0,68.9,30.03,WSW,250,0.0,0.0,84,0.00,,BKN120,0.00,VWS V14.01,2013-08-22 05:28:00,
2013-08-22 00:30:00,74.0,68.9,30.03,WSW,250,0.0,2.0,84,0.00,,CLR,0.00,VWS V14.01,2013-08-22 05:30:00,
2013-08-22 00:34:00,73.7,68.9,30.03,WSW,250,0.0,0.0,85,0.00,,BKN110,0.00,VWS V14.01,2013-08-22 05:34:00,
2013-08-22 00:39:00,73.5,68.7,30.03,WSW,250,0.0,0.0,85,0.00,,BKN110,0.00,VWS V14.01,2013-08-22 05:39:00,
2013-08-22 00:40:00,73.5,68.7,30.03,WSW,251,0.0,0.0,85,0.00,,CLR,0.00,VWS V14.01,2013-08-22 05:40:00,
2013-08-22 00:44:00,73.5,68.7,30.02,WSW,250,0.0,0.0,85,0.00,,SCT110,0.00,VWS V14.01,2013-08-22 05:44:00,
2013-08-22 00:49:00,73.6,68.8,30.02,SSW,203,1.0,1.0,85,0.00,,SCT110,0.00,VWS V14.01,2013-08-22 05:49:00,
2013-08-22 00:50:00,73.5,68.7,30.02,SSW,203,0.0,1.0,85,0.00,,CLR,0.00,VWS V14.01,2013-08-22 05:50:00,
2013-08-22 00:54:00,73.8,68.7,30.02,WSW,253,0.0,1.0,84,0.00,,SCT110,0.00,VWS V14.01,2013-08-22 05:54:00,
2013-08-22 00:59:00,73.9,68.8,30.02,West,259,0.0,1.0,84,0.00,,SCT110,0.00,VWS V14.01,2013-08-22 05:59:00,
2013-08-22 01:00:00,73.9,68.8,30.02,WSW,258,1.0,3.0,84,0.00,,CLR,0.00,VWS V14.01,2013-08-22 06:00:00,
2013-08-22 01:04:00,73.6,68.5,30.02,West,259,0.0,1.0,84,0.00,,SCT090,0.00,VWS V14.01,2013-08-22 06:04:00,
2013-08-22 01:09:00,73.5,68.7,30.02,West,259,0.0,0.0,85,0.00,,SCT090,0.00,VWS V14.01,2013-08-22 06:09:00,
2013-08-22 01:10:00,73.5,68.4,30.02,West,259,0.0,1.0,84,0.00,,CLR,0.00,VWS V14.01,2013-08-22 06:10:00,
2013-08-22 01:14:00,73.5,68.4,30.02,WSW,256,0.0,0.0,84,0.00,,SCT090,0.00,VWS V14.01,2013-08-22 06:14:00,
2013-08-22 01:19:00,73.6,68.5,30.02,West,259,0.0,1.0,84,0.00,,SCT090,0.00,VWS V14.01,2013-08-22 06:19:00,
2013-08-22 01:20:00,73.6,68.5,30.02,West,270,0.0,2.0,84,0.00,,CLR,0.00,VWS V14.01,2013-08-22 06:20:00,
2013-08-22 01:24:00,73.9,68.4,30.02,West,259,0.0,1.0,83,0.00,,,0.00,VWS V14.01,2013-08-22 06:24:00,
2013-08-22 01:29:00,74.2,68.4,30.02,SW,228,0.0,1.0,82,0.00,,,0.00,VWS V14.01,2013-08-22 06:29:00,
2013-08-22 01:30:00,74.2,68.4,30.02,WSW,254,0.0,2.0,82,0.00,,CLR,0.00,VWS V14.01,2013-08-22 06:30:00,
2013-08-22 01:34:00,74.5,68.3,30.02,WSW,253,0.0,2.0,81,0.00,,,0.00,VWS V14.01,2013-08-22 06:34:00,
2013-08-22 01:39:00,74.6,68.4,30.02,SSW,197,0.0,0.0,81,0.00,,,0.00,VWS V14.01,2013-08-22 06:39:00,
2013-08-22 01:40:00,74.6,68.4,30.02,SSE,149,0.0,2.0,81,0.00,,CLR,0.00,VWS V14.01,2013-08-22 06:40:00,
2013-08-22 01:44:00,74.5,68.3,30.02,SSW,207,0.0,0.0,81,0.00,,OVC090,0.00,VWS V14.01,2013-08-22 06:44:00,
2013-08-22 01:49:00,74.6,68.4,30.02,SSW,207,0.0,0.0,81,0.00,,OVC090,0.00,VWS V14.01,2013-08-22 06:49:00,
2013-08-22 01:50:00,74.6,68.4,30.02,SSW,207,0.0,0.0,81,0.00,,CLR,0.00,VWS V14.01,2013-08-22 06:50:00,
2013-08-22 01:54:00,74.7,68.5,30.03,SSW,207,0.0,0.0,81,0.00,,OVC090,0.00,VWS V14.01,2013-08-22 06:54:00,
2013-08-22 01:59:00,74.6,68.4,30.04,SSW,207,0.0,0.0,81,0.00,,OVC090,0.00,VWS V14.01,2013-08-22 06:59:00,
2013-08-22 02:00:00,74.6,68.4,30.03,SSW,207,0.0,0.0,81,0.00,,CLR,0.00,VWS V14.01,2013-08-22 07:00:00,
2013-08-22 02:04:00,74.5,68.7,30.05,SSW,207,0.0,0.0,82,0.00,,OVC075,0.00,VWS V14.01,2013-08-22 07:04:00,
2013-08-22 02:09:00,74.2,68.4,30.07,NNW,340,1.0,2.0,82,0.00,,OVC075,0.00,VWS V14.01,2013-08-22 07:09:00,
2013-08-22 02:10:00,74.3,68.4,30.06,NNW,342,0.0,0.0,82,0.00,,CLR,0.00,VWS V14.01,2013-08-22 07:10:00,
2013-08-22 02:14:00,74.4,69.3,30.07,North,1,0.0,3.0,84,0.06,,OVC075,0.06,VWS V14.01,2013-08-22 07:14:00,
2013-08-22 02:19:00,73.6,69.5,30.07,NNW,330,1.0,1.0,87,0.18,,OVC075,0.18,VWS V14.01,2013-08-22 07:19:00,
2013-08-22 02:20:00,73.9,69.4,30.07,NNW,336,1.0,3.0,86,0.14,,CLR,0.14,VWS V14.01,2013-08-22 07:20:00,
2013-08-22 02:24:00,72.8,69.4,30.07,North,349,1.0,1.0,89,0.34,,OVC075,0.34,VWS V14.01,2013-08-22 07:24:00,
2013-08-22 02:29:00,72.2,69.1,30.07,NNW,339,0.0,1.0,90,0.50,,OVC075,0.50,VWS V14.01,2013-08-22 07:29:00,
2013-08-22 02:30:00,72.4,69.3,30.07,NNW,347,1.0,2.0,90,0.46,,CLR,0.46,VWS V14.01,2013-08-22 07:30:00,
2013-08-22 02:34:00,71.6,69.2,30.06,WSW,242,1.0,2.0,92,0.59,,OVC075,0.59,VWS V14.01,2013-08-22 07:34:00,
2013-08-22 02:39:00,71.5,69.4,30.05,WSW,238,1.0,2.0,93,0.65,,OVC075,0.65,VWS V14.01,2013-08-22 07:39:00,
2013-08-22 02:40:00,71.5,69.4,30.05,WSW,238,0.0,4.0,93,0.63,,CLR,0.63,VWS V14.01,2013-08-22 07:40:00,
2013-08-22 02:44:00,71.3,69.5,30.05,WSW,246,1.0,2.0,94,0.68,,,0.68,VWS V14.01,2013-08-22 07:44:00,
2013-08-22 02:49:00,71.1,69.3,30.04,WNW,283,0.0,1.0,94,0.70,,,0.70,VWS V14.01,2013-08-22 07:49:00,
2013-08-22 02:50:00,71.2,69.4,30.04,WNW,283,1.0,2.0,94,0.70,,CLR,0.70,VWS V14.01,2013-08-22 07:50:00,
2013-08-22 02:54:00,71.0,69.2,30.05,WNW,288,0.0,1.0,94,0.71,,,0.71,VWS V14.01,2013-08-22 07:54:00,
2013-08-22 02:59:00,71.0,69.2,30.04,WSW,245,1.0,2.0,94,0.71,,,0.71,VWS V14.01,2013-08-22 07:59:00,
2013-08-22 03:00:00,71.0,69.2,30.04,WSW,250,1.0,3.0,94,0.71,,CLR,0.71,VWS V14.01,2013-08-22 08:00:00,
2013-08-22 03:04:00,70.8,69.3,30.04,West,269,1.0,4.0,95,0.72,,,0.72,VWS V14.01,2013-08-22 08:04:00,
2013-08-22 03:10:00,70.8,69.3,30.04,NNW,335,0.0,0.0,95,0.72,,,0.72,VWS V14.01,2013-08-22 08:10:00,
2013-08-22 03:15:00,70.7,69.2,30.04,SSE,162,0.0,2.0,95,0.72,,,0.72,VWS V14.01,2013-08-22 08:15:00,
2013-08-22 03:20:00,70.7,69.2,30.04,SSE,158,0.0,0.0,95,0.58,,BKN120,0.72,VWS V14.01,2013-08-22 08:20:00,
2013-08-22 03:25:00,70.7,69.2,30.04,SSW,205,0.0,0.0,95,0.58,,BKN120,0.72,VWS V14.01,2013-08-22 08:25:00,
2013-08-22 03:30:00,70.7,69.2,30.04,SSW,210,0.0,1.0,95,0.26,,BKN120,0.72,VWS V14.01,2013-08-22 08:30:00,
2013-08-22 03:35:00,70.7,69.2,30.04,SE,134,0.0,1.0,95,0.26,,BKN120,0.72,VWS V14.01,2013-08-22 08:35:00,
2013-08-22 03:40:00,70.6,69.1,30.04,WSW,240,0.0,1.0,95,0.09,,BKN110,0.72,VWS V14.01,2013-08-22 08:40:00,
2013-08-22 03:45:00,70.6,69.1,30.04,WSW,248,1.0,2.0,95,0.09,,BKN110,0.72,VWS V14.01,2013-08-22 08:45:00,
2013-08-22 03:50:00,70.7,69.2,30.04,ESE,103,0.0,0.0,95,0.02,,BKN110,0.72,VWS V14.01,2013-08-22 08:50:00,
2013-08-22 03:55:00,70.7,69.2,30.04,ESE,104,0.0,0.0,95,0.02,,BKN110,0.72,VWS V14.01,2013-08-22 08:55:00,
2013-08-22 04:00:00,70.7,69.2,30.04,WNW,288,0.0,0.0,95,0.01,,BKN110,0.72,VWS V14.01,2013-08-22 09:00:00,
2013-08-22 04:05:00,70.7,69.2,30.04,SW,215,0.0,1.0,95,0.01,,BKN110,0.72,VWS V14.01,2013-08-22 09:05:00,
2013-08-22 04:10:00,70.6,69.1,30.03,SW,215,0.0,0.0,95,0.00,,BKN110,0.72,VWS V14.01,2013-08-22 09:10:00,
2013-08-22 04:15:00,70.5,69.0,30.03,SW,215,0.0,0.0,95,0.00,,BKN110,0.72,VWS V14.01,2013-08-22 09:15:00,
2013-08-22 04:20:00,70.4,68.9,30.03,SW,215,0.0,0.0,95,0.00,,BKN110,0.72,VWS V14.01,2013-08-22 09:20:00,
2013-08-22 04:25:00,70.4,68.9,30.04,East,98,0.0,0.0,95,0.00,,BKN110,0.72,VWS V14.01,2013-08-22 09:25:00,
2013-08-22 04:30:00,70.3,68.8,30.04,SSE,160,2.0,4.0,95,0.00,,BKN110,0.72,VWS V14.01,2013-08-22 09:30:00,
2013-08-22 04:35:00,70.4,68.9,30.03,SW,221,0.0,4.0,95,0.00,,BKN110,0.72,VWS V14.01,2013-08-22 09:35:00,
2013-08-22 04:40:00,70.5,69.0,30.03,SW,221,0.0,1.0,95,0.00,,BKN110,0.72,VWS V14.01,2013-08-22 09:40:00,
2013-08-22 04:45:00,70.5,69.0,30.03,WSW,238,1.0,2.0,95,0.00,,BKN110,0.72,VWS V14.01,2013-08-22 09:45:00,
2013-08-22 04:50:00,70.4,68.9,30.02,WSW,239,0.0,1.0,95,0.00,,SCT100,0.72,VWS V14.01,2013-08-22 09:50:00,
2013-08-22 04:55:00,70.5,69.0,30.02,WSW,239,0.0,1.0,95,0.00,,SCT100,0.72,VWS V14.01,2013-08-22 09:55:00,
2013-08-22 05:00:00,70.5,69.0,30.03,WSW,239,0.0,0.0,95,0.00,,SCT110,0.72,VWS V14.01,2013-08-22 10:00:00,
2013-08-22 05:05:00,70.3,68.8,30.02,WSW,239,0.0,0.0,95,0.00,,SCT110,0.72,VWS V14.01,2013-08-22 10:05:00,
2013-08-22 05:10:00,70.3,68.8,30.02,WSW,239,0.0,0.0,95,0.00,,SCT110,0.72,VWS V14.01,2013-08-22 10:10:00,
2013-08-22 05:15:00,70.1,68.6,30.02,WSW,239,0.0,0.0,95,0.00,,SCT110,0.72,VWS V14.01,2013-08-22 10:15:00,
2013-08-22 05:20:00,70.1,68.6,30.02,WSW,245,0.0,0.0,95,0.00,,,0.72,VWS V14.01,2013-08-22 10:20:00,
2013-08-22 05:25:00,70.1,68.6,30.02,WSW,243,0.0,1.0,95,0.00,,,0.72,VWS V14.01,2013-08-22 10:25:00,
2013-08-22 05:30:00,70.0,68.5,30.02,WSW,243,0.0,0.0,95,0.00,,,0.72,VWS V14.01,2013-08-22 10:30:00,
2013-08-22 05:35:00,69.9,68.4,30.02,SE,144,0.0,0.0,95,0.00,,,0.72,VWS V14.01,2013-08-22 10:35:00,
2013-08-22 05:40:00,69.9,68.4,30.02,SE,144,0.0,0.0,95,0.00,,,0.72,VWS V14.01,2013-08-22 10:40:00,
2013-08-22 05:45:00,69.8,68.3,30.02,SE,144,0.0,0.0,95,0.00,,,0.72,VWS V14.01,2013-08-22 10:45:00,
2013-08-22 05:50:00,69.8,68.3,30.03,SE,143,0.0,0.0,95,0.00,,CLR,0.72,VWS V14.01,2013-08-22 10:50:00,
2013-08-22 06:00:00,69.8,68.3,30.03,SE,143,0.0,0.0,95,0.00,,CLR,0.72,VWS V14.01,2013-08-22 11:00:00,
2013-08-22 06:10:00,69.8,68.6,30.04,SE,143,0.0,0.0,96,0.00,,CLR,0.72,VWS V14.01,2013-08-22 11:10:00,
2013-08-22 06:20:00,69.9,68.7,30.04,SE,144,0.0,0.0,96,0.00,,CLR,0.72,VWS V14.01,2013-08-22 11:20:00,
2013-08-22 06:30:00,70.1,68.9,30.05,WSW,245,0.0,2.0,96,0.00,,CLR,0.72,VWS V14.01,2013-08-22 11:30:00,
2013-08-22 06:40:00,70.1,68.6,30.05,WSW,245,0.0,0.0,95,0.00,,CLR,0.72,VWS V14.01,2013-08-22 11:40:00,
2013-08-22 06:50:00,69.9,68.4,30.05,WSW,245,0.0,0.0,95,0.00,,CLR,0.72,VWS V14.01,2013-08-22 11:50:00,
2013-08-22 07:00:00,69.9,68.4,30.05,WSW,245,0.0,0.0,95,0.00,,CLR,0.72,VWS V14.01,2013-08-22 12:00:00,
2013-08-22 07:10:00,70.0,68.8,30.04,WSW,245,0.0,1.0,96,0.00,,CLR,0.72,VWS V14.01,2013-08-22 12:10:00,
2013-08-22 07:20:00,70.2,69.0,30.04,WSW,240,0.0,1.0,96,0.00,,CLR,0.72,VWS V14.01,2013-08-22 12:20:00,
2013-08-22 07:27:00,70.3,69.1,30.05,WSW,240,1.0,1.0,96,0.00,,BKN095,0.72,VWS V14.01,2013-08-22 12:27:00,
2013-08-22 07:30:00,70.3,69.1,30.04,WSW,240,0.0,1.0,96,0.00,,CLR,0.72,VWS V14.01,2013-08-22 12:30:00,
2013-08-22 07:32:00,70.5,69.3,30.05,WSW,240,0.0,1.0,96,0.00,,BKN095,0.72,VWS V14.01,2013-08-22 12:32:00,
2013-08-22 07:37:00,70.5,69.3,30.05,WSW,240,0.0,1.0,96,0.00,,BKN095,0.72,VWS V14.01,2013-08-22 12:37:00,
2013-08-22 07:40:00,70.5,69.3,30.05,WSW,240,0.0,1.0,96,0.00,,CLR,0.72,VWS V14.01,2013-08-22 12:40:00,
2013-08-22 07:42:00,70.5,69.3,30.05,WSW,240,0.0,0.0,96,0.00,,OVC085,0.72,VWS V14.01,2013-08-22 12:42:00,
2013-08-22 07:47:00,70.6,69.4,30.06,WSW,240,0.0,0.0,96,0.00,,OVC085,0.72,VWS V14.01,2013-08-22 12:47:00,
2013-08-22 07:50:00,70.6,69.4,30.06,WSW,240,0.0,0.0,96,0.00,,CLR,0.72,VWS V14.01,2013-08-22 12:50:00,
2013-08-22 07:52:00,70.7,69.5,30.06,WSW,240,0.0,0.0,96,0.00,,OVC085,0.72,VWS V14.01,2013-08-22 12:52:00,
2013-08-22 07:57:00,70.7,69.5,30.06,WSW,240,0.0,0.0,96,0.00,,OVC085,0.72,VWS V14.01,2013-08-22 12:57:00,
2013-08-22 08:00:00,70.7,69.5,30.06,WSW,240,0.0,0.0,96,0.00,,OVC075,0.72,VWS V14.01,2013-08-22 13:00:00,
2013-08-22 08:05:00,70.7,69.5,30.06,WSW,240,0.0,0.0,96,0.00,,OVC075,0.72,VWS V14.01,2013-08-22 13:05:00,
2013-08-22 08:10:00,70.9,69.7,30.06,WSW,240,0.0,0.0,96,0.00,,OVC075,0.72,VWS V14.01,2013-08-22 13:10:00,
2013-08-22 08:15:00,71.0,69.8,30.05,WSW,240,0.0,0.0,96,0.00,,OVC075,0.72,VWS V14.01,2013-08-22 13:15:00,
2013-08-22 08:20:00,70.9,69.7,30.06,WSW,240,0.0,0.0,96,0.00,,-RA,0.72,VWS V14.01,2013-08-22 13:20:00,
2013-08-22 08:26:00,70.9,69.7,30.06,WSW,240,0.0,0.0,96,0.00,,-RA,0.72,VWS V14.01,2013-08-22 13:26:00,
2013-08-22 08:30:00,70.9,69.7,30.06,WSW,240,0.0,0.0,96,0.00,,CLR,0.72,VWS V14.01,2013-08-22 13:30:00,
2013-08-22 08:31:00,71.0,69.8,30.06,WSW,240,0.0,0.0,96,0.00,,-RA,0.72,VWS V14.01,2013-08-22 13:31:00,
2013-08-22 08:36:00,71.1,69.9,30.06,WSW,240,0.0,0.0,96,0.00,,-RA,0.72,VWS V14.01,2013-08-22 13:36:00,
2013-08-22 08:40:00,71.1,69.9,30.06,WSW,240,0.0,0.0,96,0.00,,CLR,0.72,VWS V14.01,2013-08-22 13:40:00,
2013-08-22 08:41:00,71.2,70.0,30.06,WSW,240,0.0,0.0,96,0.00,,OVC075,0.72,VWS V14.01,2013-08-22 13:41:00,
2013-08-22 08:46:00,71.2,70.0,30.07,WSW,240,0.0,0.0,96,0.00,,OVC075,0.72,VWS V14.01,2013-08-22 13:46:00,
2013-08-22 08:50:00,71.2,70.0,30.07,WSW,240,0.0,0.0,96,0.00,,CLR,0.72,VWS V14.01,2013-08-22 13:50:00,
2013-08-22 08:51:00,71.3,70.1,30.07,WSW,240,0.0,0.0,96,0.00,,OVC075,0.72,VWS V14.01,2013-08-22 13:51:00,
2013-08-22 08:56:00,71.4,69.9,30.08,ENE,67,0.0,5.0,95,0.00,,OVC075,0.72,VWS V14.01,2013-08-22 13:56:00,
2013-08-22 09:00:00,71.4,69.9,30.08,ENE,69,0.0,5.0,95,0.00,,CLR,0.72,VWS V14.01,2013-08-22 14:00:00,
2013-08-22 09:01:00,71.5,70.0,30.08,ENE,65,1.0,5.0,95,0.00,,OVC075,0.72,VWS V14.01,2013-08-22 14:01:00,
2013-08-22 09:06:00,71.6,70.1,30.08,ESE,118,5.0,5.0,95,0.00,,OVC075,0.72,VWS V14.01,2013-08-22 14:06:00,
2013-08-22 09:10:00,71.6,70.1,30.08,SSE,153,1.0,5.0,95,0.00,,CLR,0.72,VWS V14.01,2013-08-22 14:10:00,
2013-08-22 09:11:00,71.7,70.2,30.08,SSE,155,0.0,3.0,95,0.00,,OVC075,0.72,VWS V14.01,2013-08-22 14:11:00,
2013-08-22 09:16:00,72.0,70.5,30.08,East,100,2.0,3.0,95,0.00,,OVC075,0.72,VWS V14.01,2013-08-22 14:16:00,
2013-08-22 09:20:00,72.1,70.6,30.08,SE,143,3.0,5.0,95,0.00,,CLR,0.72,VWS V14.01,2013-08-22 14:20:00,
2013-08-22 09:21:00,72.0,70.2,30.08,East,98,3.0,6.0,94,0.00,,,0.72,VWS V14.01,2013-08-22 14:21:00,
2013-08-22 09:26:00,72.2,70.4,30.08,SE,131,3.0,6.0,94,0.00,,,0.72,VWS V14.01,2013-08-22 14:26:00,
2013-08-22 09:30:00,72.3,70.5,30.08,ESE,113,3.0,6.0,94,0.00,,CLR,0.72,VWS V14.01,2013-08-22 14:30:00,
2013-08-22 09:31:00,72.6,70.8,30.08,ESE,108,0.0,3.0,94,0.00,,,0.72,VWS V14.01,2013-08-22 14:31:00,
2013-08-22 09:36:00,72.8,70.7,30.08,East,92,1.0,3.0,93,0.00,,,0.72,VWS V14.01,2013-08-22 14:36:00,
2013-08-22 09:40:00,72.8,70.7,30.08,SE,139,3.0,4.0,93,0.00,,CLR,0.72,VWS V14.01,2013-08-22 14:40:00,
2013-08-22 09:41:00,72.9,70.8,30.07,SSW,194,1.0,4.0,93,0.00,,,0.72,VWS V14.01,2013-08-22 14:41:00,
2013-08-22 09:46:00,73.1,70.6,30.08,East,98,0.0,4.0,92,0.00,,,0.72,VWS V14.01,2013-08-22 14:46:00,
2013-08-22 09:50:00,73.2,71.1,30.08,East,98,2.0,4.0,93,0.00,,CLR,0.72,VWS V14.01,2013-08-22 14:50:00,
2013-08-22 09:51:00,73.4,71.3,30.08,East,85,2.0,3.0,93,0.00,,,0.72,VWS V14.01,2013-08-22 14:51:00,
2013-08-22 09:56:00,73.8,71.3,30.08,East,82,0.0,4.0,92,0.00,,,0.72,VWS V14.01,2013-08-22 14:56:00,
2013-08-22 10:00:00,73.9,71.4,30.08,ESE,118,2.0,4.0,92,0.00,,CLR,0.72,VWS V14.01,2013-08-22 15:00:00,
2013-08-22 10:01:00,74.0,71.2,30.08,SE,124,1.0,4.0,91,0.00,,SCT080,0.72,VWS V14.01,2013-08-22 15:01:00,
2013-08-22 10:06:00,74.3,71.5,30.09,ENE,72,0.0,4.0,91,0.00,,SCT080,0.72,VWS V14.01,2013-08-22 15:06:00,
2013-08-22 10:10:00,74.4,71.6,30.09,East,89,1.0,4.0,91,0.00,,CLR,0.72,VWS V14.01,2013-08-22 15:10:00,
2013-08-22 10:11:00,74.4,71.3,30.09,ENE,66,1.0,7.0,90,0.00,,SCT080,0.72,VWS V14.01,2013-08-22 15:11:00,
2013-08-22 10:16:00,74.4,71.3,30.10,ENE,77,1.0,7.0,90,0.00,,SCT080,0.72,VWS V14.01,2013-08-22 15:16:00,
2013-08-22 10:20:00,74.4,71.3,30.10,East,88,2.0,7.0,90,0.00,,CLR,0.72,VWS V14.01,2013-08-22 15:20:00,
2013-08-22 10:21:00,74.3,71.2,30.09,ENE,70,0.0,6.0,90,0.00,,OVC080,0.72,VWS V14.01,2013-08-22 15:21:00,
2013-08-22 10:26:00,74.4,71.3,30.10,South,188,1.0,6.0,90,0.00,,OVC080,0.72,VWS V14.01,2013-08-22 15:26:00,
2013-08-22 10:30:00,74.6,71.5,30.10,SE,129,1.0,6.0,90,0.00,,CLR,0.72,VWS V14.01,2013-08-22 15:30:00,
2013-08-22 10:31:00,74.8,71.7,30.10,East,86,2.0,7.0,90,0.00,,OVC080,0.72,VWS V14.01,2013-08-22 15:31:00,
2013-08-22 10:36:00,75.3,71.8,30.10,SE,124,2.0,7.0,89,0.00,,OVC080,0.72,VWS V14.01,2013-08-22 15:36:00,
2013-08-22 10:40:00,75.6,72.1,30.09,SSW,197,0.0,7.0,89,0.00,,CLR,0.72,VWS V14.01,2013-08-22 15:40:00,
2013-08-22 10:41:00,75.9,71.8,30.09,ESE,106,3.0,6.0,87,0.00,,,0.72,VWS V14.01,2013-08-22 15:41:00,
2013-08-22 10:46:00,76.3,72.2,30.09,SE,136,4.0,10.0,87,0.00,,,0.72,VWS V14.01,2013-08-22 15:46:00,
2013-08-22 10:50:00,76.5,72.3,30.09,ESE,120,4.0,10.0,87,0.00,,CLR,0.72,VWS V14.01,2013-08-22 15:50:00,
2013-08-22 10:51:00,76.8,72.3,30.09,South,170,3.0,9.0,86,0.00,,,0.72,VWS V14.01,2013-08-22 15:51:00,
2013-08-22 10:56:00,77.4,72.9,30.10,SE,129,6.0,9.0,86,0.00,,,0.72,VWS V14.01,2013-08-22 15:56:00,
2013-08-22 11:00:00,77.3,72.4,30.10,NE,56,0.0,9.0,85,0.00,,CLR,0.72,VWS V14.01,2013-08-22 16:00:00,
2013-08-22 11:01:00,76.7,71.5,30.10,SE,138,4.0,8.0,84,0.00,,SCT031,0.72,VWS V14.01,2013-08-22 16:01:00,
2013-08-22 11:07:00,76.2,71.4,30.10,SE,136,5.0,9.0,85,0.00,,SCT031,0.72,VWS V14.01,2013-08-22 16:07:00,
2013-08-22 11:10:00,76.1,71.3,30.10,SE,135,3.0,9.0,85,0.00,,CLR,0.72,VWS V14.01,2013-08-22 16:10:00,
2013-08-22 11:12:00,76.1,71.6,30.10,SSE,156,4.0,10.0,86,0.00,,SCT031,0.72,VWS V14.01,2013-08-22 16:12:00,
2013-08-22 11:17:00,76.4,71.9,30.10,ESE,121,4.0,10.0,86,0.00,,SCT031,0.72,VWS V14.01,2013-08-22 16:17:00,
2013-08-22 11:20:00,76.5,72.0,30.10,ESE,117,7.0,10.0,86,0.00,,CLR,0.72,VWS V14.01,2013-08-22 16:20:00,
2013-08-22 11:22:00,76.9,72.4,30.10,SE,134,5.0,8.0,86,0.00,,CLR,0.72,VWS V14.01,2013-08-22 16:22:00,
2013-08-22 11:27:00,77.4,72.9,30.10,East,98,3.0,8.0,86,0.00,,CLR,0.72,VWS V14.01,2013-08-22 16:27:00,
2013-08-22 11:30:00,77.5,73.0,30.10,ENE,68,6.0,8.0,86,0.00,,CLR,0.72,VWS V14.01,2013-08-22 16:30:00,
2013-08-22 11:32:00,77.7,72.5,30.10,ENE,63,1.0,10.0,84,0.00,,CLR,0.72,VWS V14.01,2013-08-22 16:32:00,
2013-08-22 11:37:00,77.6,72.4,30.10,ENE,63,1.0,10.0,84,0.00,,CLR,0.72,VWS V14.01,2013-08-22 16:37:00,
2013-08-22 11:40:00,77.6,72.0,30.10,SE,124,3.0,10.0,83,0.00,,CLR,0.72,VWS V14.01,2013-08-22 16:40:00,
2013-08-22 11:42:00,77.7,72.8,30.10,ENE,74,1.0,9.0,85,0.00,,BKN060,0.72,VWS V14.01,2013-08-22 16:42:00,
2013-08-22 11:47:00,77.5,72.3,30.10,ESE,118,3.0,9.0,84,0.00,,BKN060,0.72,VWS V14.01,2013-08-22 16:47:00,
2013-08-22 11:50:00,77.5,72.3,30.10,NNE,16,2.0,9.0,84,0.00,,CLR,0.72,VWS V14.01,2013-08-22 16:50:00,
2013-08-22 11:52:00,77.5,72.3,30.10,SSW,198,2.0,6.0,84,0.00,,BKN060,0.72,VWS V14.01,2013-08-22 16:52:00,
2013-08-22 11:57:00,77.5,71.9,30.10,SE,127,4.0,7.0,83,0.00,,BKN060,0.72,VWS V14.01,2013-08-22 16:57:00,
2013-08-22 12:00:00,77.5,72.3,30.09,SSW,204,2.0,7.0,84,0.00,,CLR,0.72,VWS V14.01,2013-08-22 17:00:00,
2013-08-22 12:02:00,77.6,72.4,30.09,ESE,119,5.0,5.0,84,0.00,,BKN030,0.72,VWS V14.01,2013-08-22 17:02:00,
2013-08-22 12:07:00,77.6,72.0,30.09,East,93,2.0,6.0,83,0.00,,BKN030,0.72,VWS V14.01,2013-08-22 17:07:00,
2013-08-22 12:10:00,77.6,72.4,30.09,East,85,0.0,6.0,84,0.00,,CLR,0.72,VWS V14.01,2013-08-22 17:10:00,
2013-08-22 12:12:00,77.7,72.1,30.09,ENE,77,4.0,5.0,83,0.00,,BKN030,0.72,VWS V14.01,2013-08-22 17:12:00,
2013-08-22 12:17:00,77.9,72.3,30.09,East,94,3.0,5.0,83,0.00,,BKN030,0.72,VWS V14.01,2013-08-22 17:17:00,
2013-08-22 12:20:00,78.0,72.8,30.09,SE,145,3.0,7.0,84,0.00,,CLR,0.72,VWS V14.01,2013-08-22 17:20:00,
2013-08-22 12:22:00,78.0,72.4,30.09,East,96,3.0,5.0,83,0.00,,OVC019,0.72,VWS V14.01,2013-08-22 17:22:00,
2013-08-22 12:27:00,77.8,72.2,30.10,SSE,166,0.0,7.0,83,0.00,,OVC019,0.72,VWS V14.01,2013-08-22 17:27:00,
2013-08-22 12:30:00,77.8,72.2,30.10,NE,41,0.0,7.0,83,0.00,,CLR,0.72,VWS V14.01,2013-08-22 17:30:00,
2013-08-22 12:32:00,77.9,72.3,30.10,ESE,117,4.0,4.0,83,0.00,,OVC019,0.72,VWS V14.01,2013-08-22 17:32:00,
2013-08-22 12:37:00,77.8,72.6,30.10,NNE,32,0.0,4.0,84,0.00,,OVC019,0.72,VWS V14.01,2013-08-22 17:37:00,
2013-08-22 12:40:00,77.8,72.2,30.10,East,80,1.0,4.0,83,0.00,,CLR,0.72,VWS V14.01,2013-08-22 17:40:00,
2013-08-22 12:42:00,77.7,72.1,30.10,NNE,13,1.0,1.0,83,0.00,,RA,0.72,VWS V14.01,2013-08-22 17:42:00,
2013-08-22 12:47:00,77.5,71.9,30.10,NE,51,1.0,2.0,83,0.00,,RA,0.72,VWS V14.01,2013-08-22 17:47:00,
2013-08-22 12:50:00,77.5,71.9,30.10,NE,45,0.0,2.0,83,0.00,,CLR,0.72,VWS V14.01,2013-08-22 17:50:00,
2013-08-22 12:52:00,77.4,71.8,30.10,NNE,25,0.0,1.0,83,0.00,,RA,0.72,VWS V14.01,2013-08-22 17:52:00,
2013-08-22 12:57:00,77.2,71.6,30.11,NNE,32,0.0,1.0,83,0.00,,RA,0.72,VWS V14.01,2013-08-22 17:57:00,
2013-08-22 13:00:00,77.2,71.6,30.11,NNE,32,0.0,2.0,83,0.00,,CLR,0.72,VWS V14.01,2013-08-22 18:00:00,
2013-08-22 13:02:00,77.0,71.4,30.11,NNE,12,1.0,1.0,83,0.00,,-RA,0.72,VWS V14.01,2013-08-22 18:02:00,
2013-08-22 13:07:00,76.7,71.2,30.11,NE,54,0.0,2.0,83,0.00,,-RA,0.72,VWS V14.01,2013-08-22 18:07:00,
2013-08-22 13:10:00,76.6,71.1,30.12,NE,41,1.0,2.0,83,0.00,,CLR,0.72,VWS V14.01,2013-08-22 18:10:00,
2013-08-22 13:12:00,76.2,70.7,30.12,NE,36,2.0,4.0,83,0.00,,-RA,0.72,VWS V14.01,2013-08-22 18:12:00,
2013-08-22 13:17:00,74.6,68.8,30.12,NNE,25,2.0,10.0,82,0.00,,-RA,0.72,VWS V14.01,2013-08-22 18:17:00,
2013-08-22 13:20:00,74.4,68.9,30.12,North,11,5.0,10.0,83,0.00,,CLR,0.72,VWS V14.01,2013-08-22 18:20:00,
2013-08-22 13:22:00,73.4,68.6,30.12,NE,38,1.0,5.0,85,0.00,,OVC060,0.72,VWS V14.01,2013-08-22 18:22:00,
2013-08-22 13:27:00,72.7,68.6,30.11,East,89,1.0,5.0,87,0.00,,OVC060,0.72,VWS V14.01,2013-08-22 18:27:00,
2013-08-22 13:30:00,72.6,68.5,30.11,ESE,103,1.0,5.0,87,0.00,,CLR,0.72,VWS V14.01,2013-08-22 18:30:00,
2013-08-22 13:32:00,72.2,68.8,30.12,NE,34,1.0,9.0,89,0.00,,OVC060,0.72,VWS V14.01,2013-08-22 18:32:00,
2013-08-22 13:37:00,71.9,69.1,30.11,ENE,77,6.0,12.0,91,0.00,,OVC060,0.72,VWS V14.01,2013-08-22 18:37:00,
2013-08-22 13:40:00,71.9,69.1,30.11,SE,136,5.0,12.0,91,0.00,,CLR,0.72,VWS V14.01,2013-08-22 18:40:00,
2013-08-22 13:43:00,71.7,68.9,30.11,East,86,2.0,9.0,91,0.00,,OVC080,0.72,VWS V14.01,2013-08-22 18:43:00,
2013-08-22 13:48:00,71.7,68.9,30.11,ESE,118,7.0,9.0,91,0.00,,OVC080,0.72,VWS V14.01,2013-08-22 18:48:00,
2013-08-22 13:50:00,71.7,68.9,30.11,NE,41,4.0,9.0,91,0.00,,CLR,0.72,VWS V14.01,2013-08-22 18:50:00,
2013-08-22 13:53:00,71.8,68.4,30.10,East,82,2.0,8.0,89,0.00,,OVC080,0.72,VWS V14.01,2013-08-22 18:53:00,
2013-08-22 13:58:00,71.9,68.5,30.10,ENE,64,1.0,9.0,89,0.00,,OVC080,0.72,VWS V14.01,2013-08-22 18:58:00,
2013-08-22 14:00:00,71.9,68.5,30.10,NNE,23,1.0,9.0,89,0.00,,CLR,0.72,VWS V14.01,2013-08-22 19:00:00,
2013-08-22 14:03:00,72.1,68.7,30.10,ENE,61,2.0,7.0,89,0.00,,BKN080,0.72,VWS V14.01,2013-08-22 19:03:00,
2013-08-22 14:08:00,72.2,68.8,30.09,SE,144,2.0,7.0,89,0.00,,BKN080,0.72,VWS V14.01,2013-08-22 19:08:00,
2013-08-22 14:10:00,72.2,68.8,30.09,SE,129,3.0,7.0,89,0.00,,CLR,0.72,VWS V14.01,2013-08-22 19:10:00,
2013-08-22 14:13:00,72.3,68.9,30.09,ESE,107,4.0,8.0,89,0.00,,BKN080,0.72,VWS V14.01,2013-08-22 19:13:00,
2013-08-22 14:18:00,72.5,68.8,30.09,ESE,107,3.0,8.0,88,0.00,,BKN080,0.72,VWS V14.01,2013-08-22 19:18:00,
2013-08-22 14:20:00,72.6,68.8,30.09,ESE,105,3.0,8.0,88,0.00,,CLR,0.72,VWS V14.01,2013-08-22 19:20:00,
2013-08-22 14:23:00,72.9,68.8,30.09,SE,132,3.0,6.0,87,0.00,,SCT085,0.72,VWS V14.01,2013-08-22 19:23:00,
2013-08-22 14:28:00,73.0,68.9,30.08,NE,41,1.0,6.0,87,0.00,,SCT085,0.72,VWS V14.01,2013-08-22 19:28:00,
2013-08-22 14:30:00,73.0,68.9,30.08,NE,41,1.0,6.0,87,0.00,,CLR,0.72,VWS V14.01,2013-08-22 19:30:00,
2013-08-22 14:33:00,73.1,68.3,30.08,ENE,72,1.0,5.0,85,0.00,,SCT085,0.72,VWS V14.01,2013-08-22 19:33:00,
2013-08-22 14:38:00,73.2,68.4,30.09,SW,221,2.0,6.0,85,0.00,,SCT085,0.72,VWS V14.01,2013-08-22 19:38:00,
2013-08-22 14:40:00,73.2,68.4,30.09,SW,221,2.0,6.0,85,0.00,,CLR,0.72,VWS V14.01,2013-08-22 19:40:00,
2013-08-22 14:43:00,73.1,68.0,30.08,East,84,2.0,9.0,84,0.00,,SCT085,0.72,VWS V14.01,2013-08-22 19:43:00,
2013-08-22 14:48:00,73.3,68.2,30.08,East,82,4.0,4.0,84,0.00,,SCT085,0.72,VWS V14.01,2013-08-22 19:48:00,
2013-08-22 14:50:00,73.3,68.2,30.08,East,85,2.0,9.0,84,0.00,,CLR,0.72,VWS V14.01,2013-08-22 19:50:00,
2013-08-22 14:53:00,73.6,68.8,30.08,South,183,6.0,6.0,85,0.00,,SCT085,0.72,VWS V14.01,2013-08-22 19:53:00,
2013-08-22 14:58:00,73.6,68.1,30.08,East,84,3.0,4.0,83,0.00,,SCT085,0.72,VWS V14.01,2013-08-22 19:58:00,
2013-08-22 15:00:00,73.6,68.1,30.08,East,79,3.0,9.0,83,0.00,,CLR,0.72,VWS V14.01,2013-08-22 20:00:00,
2013-08-22 15:03:00,74.1,68.3,30.07,East,82,7.0,7.0,82,0.00,,CLR,0.72,VWS V14.01,2013-08-22 20:03:00,
2013-08-22 15:08:00,74.4,67.8,30.07,SSE,153,5.0,5.0,80,0.00,,CLR,0.72,VWS V14.01,2013-08-22 20:08:00,
2013-08-22 15:10:00,74.4,67.8,30.07,SSW,212,4.0,9.0,80,0.00,,CLR,0.72,VWS V14.01,2013-08-22 20:10:00,
2013-08-22 15:13:00,74.4,67.8,30.06,East,84,3.0,7.0,80,0.00,,CLR,0.72,VWS V14.01,2013-08-22 20:13:00,
2013-08-22 15:18:00,74.4,67.8,30.06,SE,134,1.0,4.0,80,0.00,,CLR,0.72,VWS V14.01,2013-08-22 20:18:00,
2013-08-22 15:20:00,74.3,67.7,30.06,ESE,117,4.0,7.0,80,0.00,,CLR,0.72,VWS V14.01,2013-08-22 20:20:00,
2013-08-22 15:23:00,74.4,67.8,30.05,SE,139,3.0,6.0,80,0.00,,CLR,0.72,VWS V14.01,2013-08-22 20:23:00,
2013-08-22 15:28:00,74.4,68.2,30.05,ESE,116,2.0,4.0,81,0.00,,CLR,0.72,VWS V14.01,2013-08-22 20:28:00,
2013-08-22 15:30:00,74.4,68.2,30.05,East,101,3.0,7.0,81,0.00,,CLR,0.72,VWS V14.01,2013-08-22 20:30:00,
2013-08-22 15:33:00,74.5,67.6,30.04,SSE,163,11.0,11.0,79,0.00,,CLR,0.72,VWS V14.01,2013-08-22 20:33:00,
2013-08-22 15:38:00,74.2,67.3,30.04,SSE,165,3.0,4.0,79,0.00,,CLR,0.72,VWS V14.01,2013-08-22 20:38:00,
2013-08-22 15:40:00,74.2,67.3,30.04,ESE,116,3.0,11.0,79,0.00,,CLR,0.72,VWS V14.01,2013-08-22 20:40:00,
2013-08-22 15:43:00,74.4,68.2,30.04,SSE,156,2.0,5.0,81,0.00,,CLR,0.72,VWS V14.01,2013-08-22 20:43:00,
2013-08-22 15:48:00,74.5,67.6,30.04,ESE,105,7.0,7.0,79,0.00,,CLR,0.72,VWS V14.01,2013-08-22 20:48:00,
2013-08-22 15:50:00,74.5,67.6,30.04,SSW,198,3.0,6.0,79,0.00,,CLR,0.72,VWS V14.01,2013-08-22 20:50:00,
2013-08-22 15:53:00,74.4,67.5,30.04,ESE,110,1.0,7.0,79,0.00,,CLR,0.72,VWS V14.01,2013-08-22 20:53:00,
2013-08-22 15:58:00,74.4,67.5,30.04,SSE,159,1.0,6.0,79,0.00,,CLR,0.72,VWS V14.01,2013-08-22 20:58:00,
2013-08-22 16:00:00,74.4,67.5,30.04,East,101,4.0,7.0,79,0.00,,CLR,0.72,VWS V14.01,2013-08-22 21:00:00,
2013-08-22 16:03:00,74.3,67.4,30.04,SE,143,5.0,7.0,79,0.00,,CLR,0.72,VWS V14.01,2013-08-22 21:03:00,
2013-08-22 16:08:00,74.2,67.6,30.03,SE,143,3.0,3.0,80,0.00,,CLR,0.72,VWS V14.01,2013-08-22 21:08:00,
2013-08-22 16:10:00,74.2,67.6,30.03,South,183,3.0,7.0,80,0.00,,CLR,0.72,VWS V14.01,2013-08-22 21:10:00,
2013-08-22 16:13:00,74.3,67.7,30.03,South,188,0.0,6.0,80,0.00,,CLR,0.72,VWS V14.01,2013-08-22 21:13:00,
2013-08-22 16:18:00,74.5,67.6,30.03,ESE,103,2.0,4.0,79,0.00,,CLR,0.72,VWS V14.01,2013-08-22 21:18:00,
2013-08-22 16:20:00,74.4,67.5,30.03,SSE,162,2.0,6.0,79,0.00,,CLR,0.72,VWS V14.01,2013-08-22 21:20:00,
2013-08-22 16:24:00,74.7,68.1,30.03,SSE,159,1.0,4.0,80,0.00,,CLR,0.72,VWS V14.01,2013-08-22 21:24:00,
2013-08-22 16:29:00,74.9,68.3,30.03,ESE,114,2.0,3.0,80,0.00,,CLR,0.72,VWS V14.01,2013-08-22 21:29:00,
2013-08-22 16:30:00,74.9,67.9,30.03,SE,137,1.0,4.0,79,0.00,,CLR,0.72,VWS V14.01,2013-08-22 21:30:00,
2013-08-22 16:34:00,75.1,68.2,30.04,SSE,159,1.0,3.0,79,0.00,,CLR,0.72,VWS V14.01,2013-08-22 21:34:00,
2013-08-22 16:39:00,75.4,68.4,30.04,SSE,159,0.0,0.0,79,0.00,,CLR,0.72,VWS V14.01,2013-08-22 21:39:00,
2013-08-22 16:40:00,75.4,68.4,30.04,SSE,160,0.0,3.0,79,0.00,,CLR,0.72,VWS V14.01,2013-08-22 21:40:00,
2013-08-22 16:44:00,75.7,68.4,30.04,SE,135,0.0,2.0,78,0.00,,CLR,0.72,VWS V14.01,2013-08-22 21:44:00,
2013-08-22 16:49:00,75.7,68.0,30.04,SSE,153,1.0,3.0,77,0.00,,CLR,0.72,VWS V14.01,2013-08-22 21:49:00,
2013-08-22 16:50:00,75.7,68.4,30.04,SE,135,1.0,4.0,78,0.00,,CLR,0.72,VWS V14.01,2013-08-22 21:50:00,
2013-08-22 16:54:00,75.7,68.4,30.04,South,189,0.0,3.0,78,0.00,,CLR,0.72,VWS V14.01,2013-08-22 21:54:00,
2013-08-22 16:59:00,75.7,68.7,30.04,SSW,194,0.0,0.0,79,0.00,,CLR,0.72,VWS V14.01,2013-08-22 21:59:00,
2013-08-22 17:00:00,75.7,68.7,30.04,SSW,194,0.0,3.0,79,0.00,,CLR,0.72,VWS V14.01,2013-08-22 22:00:00,
2013-08-22 17:04:00,75.5,68.9,30.04,SW,214,0.0,1.0,80,0.00,,CLR,0.72,VWS V14.01,2013-08-22 22:04:00,
2013-08-22 17:09:00,75.2,68.6,30.04,WSW,238,0.0,0.0,80,0.00,,CLR,0.72,VWS V14.01,2013-08-22 22:09:00,
2013-08-22 17:10:00,75.3,68.7,30.04,WSW,238,0.0,1.0,80,0.00,,CLR,0.72,VWS V14.01,2013-08-22 22:10:00,
2013-08-22 17:14:00,75.1,68.9,30.04,SW,236,0.0,1.0,81,0.00,,CLR,0.72,VWS V14.01,2013-08-22 22:14:00,
2013-08-22 17:19:00,75.0,68.8,30.04,SSE,150,0.0,0.0,81,0.00,,CLR,0.72,VWS V14.01,2013-08-22 22:19:00,
2013-08-22 17:20:00,75.1,68.9,30.04,SSE,148,0.0,1.0,81,0.00,,CLR,0.72,VWS V14.01,2013-08-22 22:20:00,
2013-08-22 17:24:00,75.0,68.8,30.03,SE,136,0.0,1.0,81,0.00,,CLR,0.72,VWS V14.01,2013-08-22 22:24:00,
2013-08-22 17:29:00,74.9,69.0,30.03,SE,137,0.0,0.0,82,0.00,,CLR,0.72,VWS V14.01,2013-08-22 22:29:00,
2013-08-22 17:30:00,74.9,69.0,30.03,SE,136,0.0,1.0,82,0.00,,CLR,0.72,VWS V14.01,2013-08-22 22:30:00,
2013-08-22 17:34:00,75.0,69.5,30.03,SE,136,0.0,0.0,83,0.00,,CLR,0.72,VWS V14.01,2013-08-22 22:34:00,
2013-08-22 17:39:00,74.9,69.4,30.04,SE,137,0.0,1.0,83,0.00,,CLR,0.72,VWS V14.01,2013-08-22 22:39:00,
2013-08-22 17:40:00,74.9,69.4,30.03,SE,137,0.0,0.0,83,0.00,,CLR,0.72,VWS V14.01,2013-08-22 22:40:00,
2013-08-22 17:44:00,74.5,69.3,30.05,SE,136,0.0,1.0,84,0.00,,CLR,0.72,VWS V14.01,2013-08-22 22:44:00,
2013-08-22 17:49:00,74.2,69.4,30.05,SE,136,0.0,1.0,85,0.00,,CLR,0.72,VWS V14.01,2013-08-22 22:49:00,
2013-08-22 17:50:00,74.3,69.5,30.05,SE,137,0.0,1.0,85,0.00,,CLR,0.72,VWS V14.01,2013-08-22 22:50:00,
2013-08-22 17:54:00,74.1,69.3,30.05,SE,136,0.0,1.0,85,0.00,,CLR,0.72,VWS V14.01,2013-08-22 22:54:00,
2013-08-22 17:59:00,74.0,69.6,30.04,SE,136,0.0,0.0,86,0.00,,CLR,0.72,VWS V14.01,2013-08-22 22:59:00,
2013-08-22 18:00:00,74.1,69.7,30.04,SE,136,0.0,1.0,86,0.00,,CLR,0.72,VWS V14.01,2013-08-22 23:00:00,
2013-08-22 18:04:00,73.9,69.4,30.05,SE,136,0.0,0.0,86,0.00,,CLR,0.72,VWS V14.01,2013-08-22 23:04:00,
2013-08-22 18:09:00,73.8,69.3,30.05,SE,136,0.0,0.0,86,0.00,,CLR,0.72,VWS V14.01,2013-08-22 23:09:00,
2013-08-22 18:10:00,73.9,69.4,30.05,SE,136,0.0,0.0,86,0.00,,CLR,0.72,VWS V14.01,2013-08-22 23:10:00,
2013-08-22 18:14:00,73.8,69.7,30.05,SE,136,0.0,0.0,87,0.00,,CLR,0.72,VWS V14.01,2013-08-22 23:14:00,
2013-08-22 18:19:00,73.9,69.4,30.04,SE,137,0.0,0.0,86,0.00,,CLR,0.72,VWS V14.01,2013-08-22 23:19:00,
2013-08-22 18:20:00,73.9,69.4,30.05,SE,136,0.0,0.0,86,0.00,,CLR,0.72,VWS V14.01,2013-08-22 23:20:00,
2013-08-22 18:24:00,73.9,69.8,30.04,SSE,166,0.0,0.0,87,0.00,,CLR,0.72,VWS V14.01,2013-08-22 23:24:00,
2013-08-22 18:29:00,73.7,69.6,30.04,SSE,162,0.0,0.0,87,0.00,,CLR,0.72,VWS V14.01,2013-08-22 23:29:00,
2013-08-22 18:30:00,73.7,69.6,30.04,SSE,162,0.0,0.0,87,0.00,,CLR,0.72,VWS V14.01,2013-08-22 23:30:00,
2013-08-22 18:34:00,73.6,69.5,30.04,SSE,162,0.0,0.0,87,0.00,,CLR,0.72,VWS V14.01,2013-08-22 23:34:00,
2013-08-22 18:39:00,73.5,69.4,30.03,SSE,162,0.0,0.0,87,0.00,,CLR,0.72,VWS V14.01,2013-08-22 23:39:00,
2013-08-22 18:40:00,73.6,69.5,30.03,SSE,162,0.0,0.0,87,0.00,,CLR,0.72,VWS V14.01,2013-08-22 23:40:00,
2013-08-22 18:44:00,73.5,69.4,30.04,SSE,162,0.0,0.0,87,0.00,,BKN120,0.72,VWS V14.01,2013-08-22 23:44:00,
2013-08-22 18:49:00,73.4,69.3,30.04,SSE,162,0.0,0.0,87,0.00,,BKN120,0.72,VWS V14.01,2013-08-22 23:49:00,
2013-08-22 18:50:00,73.4,69.3,30.04,SSE,162,0.0,0.0,87,0.00,,CLR,0.72,VWS V14.01,2013-08-22 23:50:00,
2013-08-22 18:54:00,73.4,69.6,30.04,SE,127,0.0,0.0,88,0.00,,SCT120,0.72,VWS V14.01,2013-08-22 23:54:00,
2013-08-22 18:59:00,73.5,69.7,30.04,SE,127,0.0,0.0,88,0.00,,SCT120,0.72,VWS V14.01,2013-08-22 23:59:00,
2013-08-22 19:00:00,73.5,69.7,30.04,SE,127,0.0,0.0,88,0.00,,CLR,0.72,VWS V14.01,2013-08-23 00:00:00,
2013-08-22 19:05:00,73.4,69.6,30.04,SE,127,0.0,0.0,88,0.00,,SCT120,0.72,VWS V14.01,2013-08-23 00:05:00,
2013-08-22 19:10:00,73.3,69.5,30.04,SE,127,0.0,0.0,88,0.00,,SCT120,0.72,VWS V14.01,2013-08-23 00:10:00,
2013-08-22 19:15:00,73.3,69.9,30.04,SE,127,0.0,0.0,89,0.00,,SCT120,0.72,VWS V14.01,2013-08-23 00:15:00,
2013-08-22 19:20:00,73.3,69.9,30.04,SE,127,0.0,0.0,89,0.00,,BKN110,0.72,VWS V14.01,2013-08-23 00:20:00,
2013-08-22 19:25:00,73.3,69.9,30.04,SE,127,0.0,0.0,89,0.00,,BKN110,0.72,VWS V14.01,2013-08-23 00:25:00,
2013-08-22 19:30:00,73.1,69.7,30.05,SE,127,0.0,0.0,89,0.00,,BKN110,0.72,VWS V14.01,2013-08-23 00:30:00,
2013-08-22 19:35:00,72.9,69.5,30.05,SE,127,0.0,0.0,89,0.00,,BKN110,0.72,VWS V14.01,2013-08-23 00:35:00,
2013-08-22 19:40:00,72.7,69.3,30.05,SE,127,0.0,0.0,89,0.00,,BKN110,0.72,VWS V14.01,2013-08-23 00:40:00,
2013-08-22 19:45:00,72.7,69.6,30.05,SE,127,0.0,0.0,90,0.00,,BKN110,0.72,VWS V14.01,2013-08-23 00:45:00,
2013-08-22 19:50:00,72.5,69.1,30.05,SE,127,0.0,0.0,89,0.00,,SCT110,0.72,VWS V14.01,2013-08-23 00:50:00,
2013-08-22 19:55:00,72.4,69.0,30.06,SE,127,0.0,0.0,89,0.00,,SCT110,0.72,VWS V14.01,2013-08-23 00:55:00,
2013-08-22 20:00:00,72.4,69.3,30.06,SE,127,0.0,0.0,90,0.00,,SCT110,0.72,VWS V14.01,2013-08-23 01:00:00,
2013-08-22 20:05:00,72.3,69.2,30.07,SE,127,0.0,0.0,90,0.00,,SCT110,0.72,VWS V14.01,2013-08-23 01:05:00,
2013-08-22 20:10:00,72.4,69.3,30.07,SE,127,0.0,0.0,90,0.00,,SCT110,0.72,VWS V14.01,2013-08-23 01:10:00,
2013-08-22 20:15:00,72.6,69.5,30.07,SE,127,0.0,0.0,90,0.00,,SCT110,0.72,VWS V14.01,2013-08-23 01:15:00,
2013-08-22 20:20:00,72.6,69.5,30.07,SE,127,0.0,0.0,90,0.00,,SCT120,0.72,VWS V14.01,2013-08-23 01:20:00,
2013-08-22 20:25:00,72.6,69.2,30.07,SE,127,0.0,0.0,89,0.00,,SCT120,0.72,VWS V14.01,2013-08-23 01:25:00,
2013-08-22 20:30:00,72.6,69.2,30.07,SE,127,0.0,0.0,89,0.00,,SCT110,0.72,VWS V14.01,2013-08-23 01:30:00,
2013-08-22 20:35:00,72.6,69.5,30.07,East,97,0.0,0.0,90,0.00,,SCT110,0.72,VWS V14.01,2013-08-23 01:35:00,
2013-08-22 20:40:00,72.4,69.3,30.07,East,98,0.0,0.0,90,0.00,,SCT110,0.72,VWS V14.01,2013-08-23 01:40:00,
2013-08-22 20:45:00,72.3,69.2,30.07,East,79,0.0,2.0,90,0.00,,SCT110,0.72,VWS V14.01,2013-08-23 01:45:00,
2013-08-22 20:50:00,72.1,69.0,30.08,East,79,0.0,0.0,90,0.00,,SCT090,0.72,VWS V14.01,2013-08-23 01:50:00,
2013-08-22 20:55:00,71.9,68.8,30.08,ENE,60,0.0,2.0,90,0.00,,SCT090,0.72,VWS V14.01,2013-08-23 01:55:00,
2013-08-22 21:00:00,71.7,68.6,30.08,East,92,0.0,0.0,90,0.00,,SCT090,0.72,VWS V14.01,2013-08-23 02:00:00,
2013-08-22 21:05:00,71.5,68.7,30.08,NE,56,0.0,1.0,91,0.00,,SCT090,0.72,VWS V14.01,2013-08-23 02:05:00,
2013-08-22 21:10:00,71.3,68.5,30.08,East,101,0.0,0.0,91,0.00,,SCT090,0.72,VWS V14.01,2013-08-23 02:10:00,
2013-08-22 21:15:00,71.2,68.4,30.09,East,83,0.0,1.0,91,0.00,,SCT090,0.72,VWS V14.01,2013-08-23 02:15:00,
2013-08-22 21:20:00,71.1,68.3,30.09,East,82,0.0,1.0,91,0.00,,CLR,0.72,VWS V14.01,2013-08-23 02:20:00,
2013-08-22 21:21:00,71.0,68.2,30.09,ENE,74,0.0,0.0,91,0.00,,SCT090,0.72,VWS V14.01,2013-08-23 02:21:00,
2013-08-22 21:26:00,70.9,68.5,30.09,ENE,74,0.0,0.0,92,0.00,,SCT090,0.72,VWS V14.01,2013-08-23 02:26:00,
2013-08-22 21:30:00,70.9,68.5,30.09,ENE,77,0.0,0.0,92,0.00,,CLR,0.72,VWS V14.01,2013-08-23 02:30:00,
2013-08-22 21:31:00,70.8,68.4,30.09,ENE,65,1.0,1.0,92,0.00,,BKN120,0.72,VWS V14.01,2013-08-23 02:31:00,
2013-08-22 21:36:00,70.8,68.4,30.09,East,89,0.0,1.0,92,0.00,,BKN120,0.72,VWS V14.01,2013-08-23 02:36:00,
2013-08-22 21:40:00,70.7,68.3,30.09,East,80,0.0,1.0,92,0.00,,CLR,0.72,VWS V14.01,2013-08-23 02:40:00,
2013-08-22 21:41:00,70.7,68.3,30.09,East,87,0.0,5.0,92,0.00,,BKN120,0.72,VWS V14.01,2013-08-23 02:41:00,
2013-08-22 21:46:00,70.7,68.3,30.09,East,83,0.0,5.0,92,0.00,,BKN120,0.72,VWS V14.01,2013-08-23 02:46:00,
2013-08-22 21:50:00,70.7,68.3,30.09,East,81,0.0,5.0,92,0.00,,CLR,0.72,VWS V14.01,2013-08-23 02:50:00,
2013-08-22 21:51:00,70.7,68.3,30.09,ENE,61,0.0,2.0,92,0.00,,OVC120,0.72,VWS V14.01,2013-08-23 02:51:00,
2013-08-22 21:56:00,70.6,68.2,30.09,NE,53,0.0,4.0,92,0.00,,OVC120,0.72,VWS V14.01,2013-08-23 02:56:00,
2013-08-22 22:00:00,70.6,68.2,30.09,NE,54,1.0,4.0,92,0.00,,CLR,0.72,VWS V14.01,2013-08-23 03:00:00,
2013-08-22 22:01:00,70.6,68.5,30.09,ENE,70,0.0,2.0,93,0.00,,OVC120,0.72,VWS V14.01,2013-08-23 03:01:00,
2013-08-22 22:06:00,70.5,68.4,30.09,ENE,77,2.0,2.0,93,0.00,,OVC120,0.72,VWS V14.01,2013-08-23 03:06:00,
2013-08-22 22:10:00,70.5,68.4,30.09,ENE,74,0.0,2.0,93,0.00,,CLR,0.72,VWS V14.01,2013-08-23 03:10:00,
2013-08-22 22:11:00,70.4,68.3,30.09,ENE,74,0.0,1.0,93,0.00,,OVC120,0.72,VWS V14.01,2013-08-23 03:11:00,
2013-08-22 22:16:00,70.3,68.2,30.09,East,90,0.0,1.0,93,0.00,,OVC120,0.72,VWS V14.01,2013-08-23 03:16:00,
2013-08-22 22:20:00,70.2,68.1,30.10,East,90,0.0,1.0,93,0.00,,CLR,0.72,VWS V14.01,2013-08-23 03:20:00,
2013-08-22 22:21:00,70.2,68.1,30.09,NE,41,1.0,5.0,93,0.00,,OVC120,0.72,VWS V14.01,2013-08-23 03:21:00,
2013-08-22 22:26:00,70.1,68.0,30.10,ESE,103,0.0,5.0,93,0.00,,OVC120,0.72,VWS V14.01,2013-08-23 03:26:00,
2013-08-22 22:30:00,70.1,68.0,30.10,East,80,0.0,5.0,93,0.00,,CLR,0.72,VWS V14.01,2013-08-23 03:30:00,
2013-08-22 22:31:00,70.1,68.0,30.10,ENE,67,0.0,0.0,93,0.00,,BKN120,0.72,VWS V14.01,2013-08-23 03:31:00,
2013-08-22 22:36:00,70.0,67.9,30.10,East,89,0.0,3.0,93,0.00,,BKN120,0.72,VWS V14.01,2013-08-23 03:36:00,
2013-08-22 22:40:00,70.0,67.9,30.10,ENE,76,1.0,3.0,93,0.00,,CLR,0.72,VWS V14.01,2013-08-23 03:40:00,
2013-08-22 22:41:00,70.1,68.0,30.10,ESE,114,3.0,3.0,93,0.00,,BKN110,0.72,VWS V14.01,2013-08-23 03:41:00,
2013-08-22 22:46:00,70.1,68.0,30.10,East,86,0.0,4.0,93,0.00,,BKN110,0.72,VWS V14.01,2013-08-23 03:46:00,
2013-08-22 22:50:00,70.0,67.9,30.10,East,86,2.0,4.0,93,0.00,,CLR,0.72,VWS V14.01,2013-08-23 03:50:00,
2013-08-22 22:51:00,70.1,68.0,30.10,East,92,0.0,5.0,93,0.00,,BKN110,0.72,VWS V14.01,2013-08-23 03:51:00,
2013-08-22 22:56:00,70.1,68.0,30.10,East,80,0.0,5.0,93,0.00,,BKN110,0.72,VWS V14.01,2013-08-23 03:56:00,
2013-08-22 23:00:00,70.1,68.0,30.10,ENE,62,3.0,5.0,93,0.00,,CLR,0.72,VWS V14.01,2013-08-23 04:00:00,
2013-08-22 23:01:00,70.1,68.0,30.10,East,79,0.0,4.0,93,0.00,,BKN110,0.72,VWS V14.01,2013-08-23 04:01:00,
2013-08-22 23:03:00,70.1,68.0,30.10,East,79,0.0,5.0,93,0.00,,BKN110,0.72,VWS V14.01,2013-08-23 04:03:00,
2013-08-22 23:06:00,70.1,68.0,30.10,ENE,72,0.0,5.0,93,0.00,,BKN110,0.72,VWS V14.01,2013-08-23 04:06:00,
2013-08-22 23:10:00,70.1,68.0,30.10,East,81,0.0,5.0,93,0.00,,CLR,0.72,VWS V14.01,2013-08-23 04:10:00,
2013-08-22 23:11:00,70.1,68.0,30.10,East,82,0.0,3.0,93,0.00,,BKN110,0.72,VWS V14.01,2013-08-23 04:11:00,
2013-08-22 23:16:00,70.1,67.7,30.10,East,86,0.0,4.0,92,0.00,,BKN110,0.72,VWS V14.01,2013-08-23 04:16:00,
2013-08-22 23:20:00,70.1,67.7,30.10,East,79,1.0,4.0,92,0.00,,CLR,0.72,VWS V14.01,2013-08-23 04:20:00,
2013-08-22 23:21:00,70.1,67.7,30.10,East,94,2.0,3.0,92,0.00,,BKN110,0.72,VWS V14.01,2013-08-23 04:21:00,
2013-08-22 23:26:00,70.1,68.0,30.10,East,91,2.0,3.0,93,0.00,,BKN110,0.72,VWS V14.01,2013-08-23 04:26:00,
2013-08-22 23:30:00,70.1,68.0,30.10,ESE,108,1.0,3.0,93,0.00,,CLR,0.72,VWS V14.01,2013-08-23 04:30:00,
2013-08-22 23:31:00,70.0,67.9,30.10,ESE,110,0.0,4.0,93,0.00,,BKN090,0.72,VWS V14.01,2013-08-23 04:31:00,
2013-08-22 23:36:00,70.0,67.9,30.10,East,92,1.0,4.0,93,0.00,,BKN090,0.72,VWS V14.01,2013-08-23 04:36:00,
2013-08-22 23:40:00,69.9,67.8,30.10,ESE,104,1.0,4.0,93,0.00,,CLR,0.72,VWS V14.01,2013-08-23 04:40:00,
2013-08-22 23:41:00,69.9,67.8,30.10,East,94,0.0,3.0,93,0.00,,BKN090,0.72,VWS V14.01,2013-08-23 04:41:00,
2013-08-22 23:46:00,69.8,67.7,30.10,East,87,2.0,3.0,93,0.00,,BKN090,0.72,VWS V14.01,2013-08-23 04:46:00,
2013-08-22 23:50:00,69.8,67.7,30.10,ESE,120,2.0,4.0,93,0.00,,CLR,0.72,VWS V14.01,2013-08-23 04:50:00,
2013-08-22 23:51:00,69.8,67.7,30.10,ESE,122,3.0,5.0,93,0.00,,SCT100,0.72,VWS V14.01,2013-08-23 04:51:00,
2013-08-22 23:57:00,69.7,67.6,30.10,SE,145,1.0,5.0,93,0.00,,SCT100,0.72,VWS V14.01,2013-08-23 04:57:00,